Year,Month,Day,Hour,Minute,Value (Times are PST for temperature in C)
2011,07,04,00,00,9.70
2011,07,04,00,01,9.70
2011,07,04,00,02,9.70
2011,07,04,00,03,9.70
2011,07,04,00,04,9.70
2011,07,04,00,05,9.60
2011,07,04,00,06,9.60
2011,07,04,00,07,9.60
2011,07,04,00,08,9.60
2011,07,04,00,09,9.60
2011,07,04,00,10,9.60
2011,07,04,00,11,9.60
2011,07,04,00,12,9.60
2011,07,04,00,13,9.50
2011,07,04,00,14,9.50
2011,07,04,00,15,9.50
2011,07,04,00,16,9.50
2011,07,04,00,17,9.50
2011,07,04,00,18,9.60
2011,07,04,00,19,9.60
2011,07,04,00,20,9.60
2011,07,04,00,21,9.50
2011,07,04,00,22,9.50
2011,07,04,00,23,9.50
2011,07,04,00,24,9.50
2011,07,04,00,25,9.40
2011,07,04,00,26,9.40
2011,07,04,00,27,9.40
2011,07,04,00,28,9.40
2011,07,04,00,29,9.40
2011,07,04,00,30,9.40
2011,07,04,00,31,9.40
2011,07,04,00,32,9.30
2011,07,04,00,33,9.30
2011,07,04,00,34,9.30
2011,07,04,00,35,9.30
2011,07,04,00,36,9.30
2011,07,04,00,37,9.20
2011,07,04,00,38,9.20
2011,07,04,00,39,9.10
2011,07,04,00,40,9.10
2011,07,04,00,41,9.10
2011,07,04,00,42,9.10
2011,07,04,00,43,9.10
2011,07,04,00,44,9.10
2011,07,04,00,45,9.10
2011,07,04,00,46,9.10
2011,07,04,00,47,9.10
2011,07,04,00,48,9.20
2011,07,04,00,49,9.20
2011,07,04,00,50,9.20
2011,07,04,00,51,9.20
2011,07,04,00,52,9.20
2011,07,04,00,53,9.20
2011,07,04,00,54,9.20
2011,07,04,00,55,9.20
2011,07,04,00,56,9.20
2011,07,04,00,57,9.20
2011,07,04,00,58,9.10
2011,07,04,00,59,9.10
2011,07,04,01,00,9.10
2011,07,04,01,01,9.10
2011,07,04,01,02,9.10
2011,07,04,01,03,9.10
2011,07,04,01,04,9.10
2011,07,04,01,05,9.10
2011,07,04,01,06,9.10
2011,07,04,01,07,9.00
2011,07,04,01,08,9.00
2011,07,04,01,09,9.00
2011,07,04,01,10,9.00
2011,07,04,01,11,9.00
2011,07,04,01,12,9.00
2011,07,04,01,13,9.00
2011,07,04,01,14,9.00
2011,07,04,01,15,9.00
2011,07,04,01,16,8.90
2011,07,04,01,17,8.90
2011,07,04,01,18,8.90
2011,07,04,01,19,8.90
2011,07,04,01,20,8.90
2011,07,04,01,21,8.90
2011,07,04,01,22,8.80
2011,07,04,01,23,8.80
2011,07,04,01,24,8.80
2011,07,04,01,25,8.80
2011,07,04,01,26,8.80
2011,07,04,01,27,8.80
2011,07,04,01,28,8.80
2011,07,04,01,29,8.70
2011,07,04,01,30,8.70
2011,07,04,01,31,8.70
2011,07,04,01,32,8.70
2011,07,04,01,33,8.70
2011,07,04,01,34,8.70
2011,07,04,01,35,8.60
2011,07,04,01,36,8.60
2011,07,04,01,37,8.70
2011,07,04,01,38,8.70
2011,07,04,01,39,8.80
2011,07,04,01,40,8.80
2011,07,04,01,41,8.90
2011,07,04,01,42,8.90
2011,07,04,01,43,9.00
2011,07,04,01,44,9.10
2011,07,04,01,45,9.10
2011,07,04,01,46,9.20
2011,07,04,01,47,9.20
2011,07,04,01,48,9.20
2011,07,04,01,49,9.30
2011,07,04,01,50,9.30
2011,07,04,01,51,9.30
2011,07,04,01,52,9.30
2011,07,04,01,53,9.40
2011,07,04,01,54,9.40
2011,07,04,01,55,9.40
2011,07,04,01,56,9.40
2011,07,04,01,57,9.40
2011,07,04,01,58,9.40
2011,07,04,01,59,9.40
2011,07,04,02,00,9.50
2011,07,04,02,01,9.50
2011,07,04,02,02,9.50
2011,07,04,02,03,9.50
2011,07,04,02,04,9.50
2011,07,04,02,05,9.50
2011,07,04,02,06,9.50
2011,07,04,02,07,9.50
2011,07,04,02,08,9.50
2011,07,04,02,09,9.60
2011,07,04,02,10,9.60
2011,07,04,02,11,9.60
2011,07,04,02,12,9.50
2011,07,04,02,13,9.50
2011,07,04,02,14,9.50
2011,07,04,02,15,9.50
2011,07,04,02,16,9.50
2011,07,04,02,17,9.50
2011,07,04,02,18,9.50
2011,07,04,02,19,9.50
2011,07,04,02,20,9.40
2011,07,04,02,21,9.40
2011,07,04,02,22,9.40
2011,07,04,02,23,9.40
2011,07,04,02,24,9.40
2011,07,04,02,25,9.40
2011,07,04,02,26,9.40
2011,07,04,02,27,9.30
2011,07,04,02,28,9.30
2011,07,04,02,29,9.30
2011,07,04,02,30,9.30
2011,07,04,02,31,9.20
2011,07,04,02,32,9.20
2011,07,04,02,33,9.20
2011,07,04,02,34,9.20
2011,07,04,02,35,9.20
2011,07,04,02,36,9.20
2011,07,04,02,37,9.20
2011,07,04,02,38,9.20
2011,07,04,02,39,9.20
2011,07,04,02,40,9.20
2011,07,04,02,41,9.20
2011,07,04,02,42,9.20
2011,07,04,02,43,9.10
2011,07,04,02,44,9.10
2011,07,04,02,45,9.10
2011,07,04,02,46,9.10
2011,07,04,02,47,9.10
2011,07,04,02,48,9.00
2011,07,04,02,49,9.00
2011,07,04,02,50,9.00
2011,07,04,02,51,9.00
2011,07,04,02,52,9.00
2011,07,04,02,53,9.00
2011,07,04,02,54,9.00
2011,07,04,02,55,9.00
2011,07,04,02,56,9.00
2011,07,04,02,57,9.00
2011,07,04,02,58,9.10
2011,07,04,02,59,9.10
2011,07,04,03,00,9.10
2011,07,04,03,01,9.10
2011,07,04,03,02,9.10
2011,07,04,03,03,9.10
2011,07,04,03,06,9.10
2011,07,04,03,07,9.10
2011,07,04,03,08,9.10
2011,07,04,03,09,9.10
2011,07,04,03,10,9.10
2011,07,04,03,11,9.10
2011,07,04,03,12,9.10
2011,07,04,03,13,9.10
2011,07,04,03,14,9.10
2011,07,04,03,15,9.10
2011,07,04,03,16,9.10
2011,07,04,03,17,9.10
2011,07,04,03,18,9.10
2011,07,04,03,19,9.00
2011,07,04,03,20,9.00
2011,07,04,03,21,9.00
2011,07,04,03,22,8.90
2011,07,04,03,23,8.90
2011,07,04,03,24,8.90
2011,07,04,03,25,8.90
2011,07,04,03,26,8.90
2011,07,04,03,27,8.90
2011,07,04,03,28,8.90
2011,07,04,03,29,8.90
2011,07,04,03,30,8.90
2011,07,04,03,31,8.90
2011,07,04,03,32,8.90
2011,07,04,03,33,8.90
2011,07,04,03,34,9.00
2011,07,04,03,35,9.00
2011,07,04,03,36,9.00
2011,07,04,03,37,9.00
2011,07,04,03,38,9.00
2011,07,04,03,39,9.00
2011,07,04,03,40,9.00
2011,07,04,03,41,9.00
2011,07,04,03,42,9.00
2011,07,04,03,43,9.00
2011,07,04,03,44,9.00
2011,07,04,03,45,9.10
2011,07,04,03,46,9.00
2011,07,04,03,47,9.00
2011,07,04,03,48,9.00
2011,07,04,03,49,9.00
2011,07,04,03,50,9.00
2011,07,04,03,51,9.00
2011,07,04,03,52,9.00
2011,07,04,03,53,9.10
2011,07,04,03,54,9.10
2011,07,04,03,55,9.10
2011,07,04,03,56,9.20
2011,07,04,03,57,9.20
2011,07,04,03,58,9.20
2011,07,04,03,59,9.20
2011,07,04,04,00,9.20
2011,07,04,04,01,9.10
2011,07,04,04,02,9.10
2011,07,04,04,03,9.10
2011,07,04,04,04,9.20
2011,07,04,04,05,9.20
2011,07,04,04,06,9.20
2011,07,04,04,07,9.20
2011,07,04,04,08,9.20
2011,07,04,04,09,9.20
2011,07,04,04,10,9.20
2011,07,04,04,11,9.20
2011,07,04,04,12,9.20
2011,07,04,04,13,9.20
2011,07,04,04,14,9.20
2011,07,04,04,15,9.20
2011,07,04,04,16,9.20
2011,07,04,04,17,9.20
2011,07,04,04,18,9.20
2011,07,04,04,19,9.20
2011,07,04,04,20,9.20
2011,07,04,04,21,9.20
2011,07,04,04,22,9.20
2011,07,04,04,23,9.20
2011,07,04,04,24,9.20
2011,07,04,04,25,9.20
2011,07,04,04,26,9.20
2011,07,04,04,27,9.20
2011,07,04,04,28,9.10
2011,07,04,04,29,9.00
2011,07,04,04,30,8.90
2011,07,04,04,31,8.90
2011,07,04,04,32,8.80
2011,07,04,04,33,8.80
2011,07,04,04,34,8.80
2011,07,04,04,35,8.80
2011,07,04,04,36,8.70
2011,07,04,04,37,8.70
2011,07,04,04,38,8.70
2011,07,04,04,39,8.80
2011,07,04,04,40,8.80
2011,07,04,04,41,8.80
2011,07,04,04,42,8.80
2011,07,04,04,43,8.80
2011,07,04,04,44,8.80
2011,07,04,04,45,8.80
2011,07,04,04,46,8.80
2011,07,04,04,47,8.80
2011,07,04,04,48,8.80
2011,07,04,04,49,8.80
2011,07,04,04,50,8.80
2011,07,04,04,51,8.80
2011,07,04,04,52,8.80
2011,07,04,04,53,8.80
2011,07,04,04,54,8.70
2011,07,04,04,55,8.70
2011,07,04,04,56,8.70
2011,07,04,04,57,8.70
2011,07,04,04,58,8.70
2011,07,04,04,59,8.70
2011,07,04,05,00,8.70
2011,07,04,05,01,8.70
2011,07,04,05,02,8.70
2011,07,04,05,03,8.60
2011,07,04,05,04,8.60
2011,07,04,05,05,8.50
2011,07,04,05,06,8.40
2011,07,04,05,07,8.40
2011,07,04,05,08,8.30
2011,07,04,05,09,8.30
2011,07,04,05,10,8.30
2011,07,04,05,11,8.30
2011,07,04,05,12,8.40
2011,07,04,05,13,8.40
2011,07,04,05,14,8.40
2011,07,04,05,15,8.40
2011,07,04,05,16,8.40
2011,07,04,05,17,8.40
2011,07,04,05,18,8.50
2011,07,04,05,19,8.50
2011,07,04,05,20,8.60
2011,07,04,05,21,8.60
2011,07,04,05,22,8.60
2011,07,04,05,23,8.60
2011,07,04,05,24,8.50
2011,07,04,05,25,8.50
2011,07,04,05,26,8.40
2011,07,04,05,27,8.40
2011,07,04,05,28,8.40
2011,07,04,05,29,8.30
2011,07,04,05,30,8.30
2011,07,04,05,31,8.30
2011,07,04,05,32,8.30
2011,07,04,05,33,8.30
2011,07,04,05,34,8.30
2011,07,04,05,35,8.30
2011,07,04,05,36,8.30
2011,07,04,05,37,8.30
2011,07,04,05,38,8.30
2011,07,04,05,39,8.30
2011,07,04,05,40,8.30
2011,07,04,05,41,8.30
2011,07,04,05,42,8.30
2011,07,04,05,43,8.30
2011,07,04,05,44,8.30
2011,07,04,05,45,8.30
2011,07,04,05,46,8.30
2011,07,04,05,47,8.40
2011,07,04,05,48,8.40
2011,07,04,05,49,8.40
2011,07,04,05,50,8.40
2011,07,04,05,51,8.40
2011,07,04,05,52,8.40
2011,07,04,05,53,8.40
2011,07,04,05,54,8.40
2011,07,04,05,55,8.40
2011,07,04,05,56,8.40
2011,07,04,05,57,8.40
2011,07,04,05,58,8.30
2011,07,04,05,59,8.30
2011,07,04,06,00,8.30
2011,07,04,06,01,8.30
2011,07,04,06,02,8.30
2011,07,04,06,03,8.20
2011,07,04,06,04,8.20
2011,07,04,06,05,8.20
2011,07,04,06,06,8.20
2011,07,04,06,07,8.20
2011,07,04,06,08,8.20
2011,07,04,06,09,8.20
2011,07,04,06,10,8.20
2011,07,04,06,11,8.20
2011,07,04,06,12,8.20
2011,07,04,06,13,8.20
2011,07,04,06,14,8.20
2011,07,04,06,15,8.20
2011,07,04,06,16,8.30
2011,07,04,06,17,8.30
2011,07,04,06,18,8.30
2011,07,04,06,19,8.30
2011,07,04,06,20,8.30
2011,07,04,06,21,8.30
2011,07,04,06,22,8.30
2011,07,04,06,23,8.30
2011,07,04,06,24,8.30
2011,07,04,06,25,8.40
2011,07,04,06,26,8.40
2011,07,04,06,27,8.40
2011,07,04,06,28,8.40
2011,07,04,06,29,8.40
2011,07,04,06,30,8.40
2011,07,04,06,31,8.40
2011,07,04,06,32,8.40
2011,07,04,06,33,8.40
2011,07,04,06,34,8.40
2011,07,04,06,35,8.50
2011,07,04,06,36,8.50
2011,07,04,06,37,8.60
2011,07,04,06,38,8.60
2011,07,04,06,39,8.70
2011,07,04,06,40,8.80
2011,07,04,06,41,8.90
2011,07,04,06,42,9.00
2011,07,04,06,43,9.10
2011,07,04,06,44,9.20
2011,07,04,06,45,9.30
2011,07,04,06,46,9.30
2011,07,04,06,47,9.40
2011,07,04,06,48,9.50
2011,07,04,06,49,9.50
2011,07,04,06,50,9.60
2011,07,04,06,51,9.70
2011,07,04,06,52,9.80
2011,07,04,06,53,9.80
2011,07,04,06,54,9.80
2011,07,04,06,55,9.80
2011,07,04,06,56,9.80
2011,07,04,06,57,9.80
2011,07,04,06,58,9.80
2011,07,04,06,59,9.80
2011,07,04,07,00,9.80
2011,07,04,07,01,9.90
2011,07,04,07,02,9.90
2011,07,04,07,03,9.90
2011,07,04,07,04,10.00
2011,07,04,07,05,10.00
2011,07,04,07,06,10.10
2011,07,04,07,07,10.10
2011,07,04,07,08,10.20
2011,07,04,07,09,10.20
2011,07,04,07,10,10.30
2011,07,04,07,11,10.30
2011,07,04,07,12,10.20
2011,07,04,07,13,10.20
2011,07,04,07,14,10.20
2011,07,04,07,15,10.20
2011,07,04,07,16,10.20
2011,07,04,07,17,10.20
2011,07,04,07,18,10.20
2011,07,04,07,19,10.20
2011,07,04,07,20,10.20
2011,07,04,07,21,10.20
2011,07,04,07,22,10.20
2011,07,04,07,23,10.20
2011,07,04,07,24,10.20
2011,07,04,07,25,10.20
2011,07,04,07,26,10.20
2011,07,04,07,27,10.20
2011,07,04,07,28,10.20
2011,07,04,07,29,10.20
2011,07,04,07,30,10.20
2011,07,04,07,31,10.20
2011,07,04,07,32,10.20
2011,07,04,07,33,10.20
2011,07,04,07,34,10.20
2011,07,04,07,35,10.20
2011,07,04,07,36,10.20
2011,07,04,07,37,10.30
2011,07,04,07,38,10.30
2011,07,04,07,39,10.30
2011,07,04,07,40,10.30
2011,07,04,07,41,10.40
2011,07,04,07,42,10.40
2011,07,04,07,43,10.40
2011,07,04,07,44,10.40
2011,07,04,07,45,10.40
2011,07,04,07,46,10.50
2011,07,04,07,47,10.50
2011,07,04,07,48,10.50
2011,07,04,07,49,10.50
2011,07,04,07,50,10.50
2011,07,04,07,51,10.60
2011,07,04,07,52,10.60
2011,07,04,07,53,10.60
2011,07,04,07,54,10.60
2011,07,04,07,55,10.70
2011,07,04,07,56,10.70
2011,07,04,07,57,10.70
2011,07,04,07,58,10.70
2011,07,04,07,59,10.70
2011,07,04,08,00,10.80
2011,07,04,08,01,10.80
2011,07,04,08,02,10.80
2011,07,04,08,03,10.80
2011,07,04,08,04,10.80
2011,07,04,08,05,10.80
2011,07,04,08,06,10.80
2011,07,04,08,07,10.80
2011,07,04,08,08,10.80
2011,07,04,08,09,10.90
2011,07,04,08,10,10.90
2011,07,04,08,11,10.90
2011,07,04,08,12,10.90
2011,07,04,08,13,10.90
2011,07,04,08,14,11.00
2011,07,04,08,15,11.00
2011,07,04,08,16,11.00
2011,07,04,08,17,11.10
2011,07,04,08,18,11.10
2011,07,04,08,19,11.20
2011,07,04,08,20,11.30
2011,07,04,08,21,11.30
2011,07,04,08,22,11.40
2011,07,04,08,23,11.40
2011,07,04,08,24,11.40
2011,07,04,08,25,11.50
2011,07,04,08,26,11.50
2011,07,04,08,27,11.60
2011,07,04,08,28,11.60
2011,07,04,08,29,11.60
2011,07,04,08,30,11.60
2011,07,04,08,31,11.60
2011,07,04,08,32,11.60
2011,07,04,08,33,11.60
2011,07,04,08,34,11.70
2011,07,04,08,35,11.70
2011,07,04,08,36,11.70
2011,07,04,08,37,11.70
2011,07,04,08,38,11.80
2011,07,04,08,39,11.80
2011,07,04,08,40,11.90
2011,07,04,08,41,11.90
2011,07,04,08,42,12.00
2011,07,04,08,43,12.00
2011,07,04,08,44,12.10
2011,07,04,08,45,12.10
2011,07,04,08,46,12.20
2011,07,04,08,47,12.30
2011,07,04,08,48,12.40
2011,07,04,08,49,12.40
2011,07,04,08,50,12.40
2011,07,04,08,51,12.30
2011,07,04,08,52,12.30
2011,07,04,08,53,12.20
2011,07,04,08,54,12.30
2011,07,04,08,55,12.30
2011,07,04,08,56,12.30
2011,07,04,08,57,12.30
2011,07,04,08,58,12.30
2011,07,04,08,59,12.30
2011,07,04,09,00,12.40
2011,07,04,09,01,12.40
2011,07,04,09,02,12.50
2011,07,04,09,03,12.50
2011,07,04,09,04,12.50
2011,07,04,09,05,12.50
2011,07,04,09,06,12.50
2011,07,04,09,07,12.50
2011,07,04,09,08,12.60
2011,07,04,09,09,12.60
2011,07,04,09,10,12.60
2011,07,04,09,11,12.60
2011,07,04,09,12,12.60
2011,07,04,09,13,12.60
2011,07,04,09,14,12.60
2011,07,04,09,15,12.60
2011,07,04,09,16,12.70
2011,07,04,09,17,12.60
2011,07,04,09,18,12.50
2011,07,04,09,19,12.50
2011,07,04,09,20,12.50
2011,07,04,09,21,12.60
2011,07,04,09,22,12.70
2011,07,04,09,23,12.70
2011,07,04,09,24,12.80
2011,07,04,09,25,12.80
2011,07,04,09,26,12.80
2011,07,04,09,27,12.80
2011,07,04,09,28,12.90
2011,07,04,09,29,12.90
2011,07,04,09,30,13.00
2011,07,04,09,31,13.10
2011,07,04,09,32,13.10
2011,07,04,09,33,13.10
2011,07,04,09,34,13.20
2011,07,04,09,35,13.20
2011,07,04,09,36,13.20
2011,07,04,09,37,13.20
2011,07,04,09,38,13.30
2011,07,04,09,39,13.40
2011,07,04,09,40,13.40
2011,07,04,09,41,13.30
2011,07,04,09,42,13.30
2011,07,04,09,43,13.30
2011,07,04,09,44,13.30
2011,07,04,09,45,13.40
2011,07,04,09,46,13.40
2011,07,04,09,47,13.40
2011,07,04,09,48,13.40
2011,07,04,09,49,13.40
2011,07,04,09,50,13.40
2011,07,04,09,51,13.30
2011,07,04,09,52,13.40
2011,07,04,09,53,13.40
2011,07,04,09,54,13.40
2011,07,04,09,55,13.40
2011,07,04,09,56,13.40
2011,07,04,09,57,13.40
2011,07,04,09,58,13.50
2011,07,04,09,59,13.50
2011,07,04,10,00,13.60
2011,07,04,10,01,13.70
2011,07,04,10,02,13.70
2011,07,04,10,03,13.70
2011,07,04,10,04,13.80
2011,07,04,10,05,13.80
2011,07,04,10,06,13.90
2011,07,04,10,07,14.00
2011,07,04,10,08,14.00
2011,07,04,10,09,14.10
2011,07,04,10,10,14.10
2011,07,04,10,11,14.20
2011,07,04,10,12,14.20
2011,07,04,10,13,14.20
2011,07,04,10,14,14.20
2011,07,04,10,15,14.20
2011,07,04,10,16,14.20
2011,07,04,10,17,14.20
2011,07,04,10,18,14.30
2011,07,04,10,19,14.40
2011,07,04,10,20,14.40
2011,07,04,10,21,14.40
2011,07,04,10,22,14.40
2011,07,04,10,23,14.40
2011,07,04,10,24,14.50
2011,07,04,10,25,14.50
2011,07,04,10,26,14.50
2011,07,04,10,27,14.50
2011,07,04,10,28,14.60
2011,07,04,10,29,14.60
2011,07,04,10,30,14.60
2011,07,04,10,31,14.60
2011,07,04,10,32,14.70
2011,07,04,10,33,14.70
2011,07,04,10,34,14.70
2011,07,04,10,35,14.80
2011,07,04,10,36,14.80
2011,07,04,10,37,14.90
2011,07,04,10,38,14.90
2011,07,04,10,39,15.00
2011,07,04,10,40,15.10
2011,07,04,10,41,15.10
2011,07,04,10,42,15.10
2011,07,04,10,43,15.10
2011,07,04,10,44,15.20
2011,07,04,10,45,15.20
2011,07,04,10,46,15.30
2011,07,04,10,47,15.30
2011,07,04,10,48,15.40
2011,07,04,10,49,15.40
2011,07,04,10,50,15.40
2011,07,04,10,51,15.30
2011,07,04,10,52,15.20
2011,07,04,10,53,15.10
2011,07,04,10,54,15.10
2011,07,04,10,55,15.10
2011,07,04,10,56,15.10
2011,07,04,10,57,15.10
2011,07,04,10,58,15.10
2011,07,04,10,59,15.00
2011,07,04,11,00,15.00
2011,07,04,11,01,15.00
2011,07,04,11,02,14.90
2011,07,04,11,03,14.90
2011,07,04,11,04,14.80
2011,07,04,11,05,14.80
2011,07,04,11,06,14.80
2011,07,04,11,07,14.80
2011,07,04,11,08,14.80
2011,07,04,11,09,14.80
2011,07,04,11,10,14.90
2011,07,04,11,11,14.90
2011,07,04,11,12,14.90
2011,07,04,11,13,14.90
2011,07,04,11,14,14.90
2011,07,04,11,15,14.80
2011,07,04,11,16,14.80
2011,07,04,11,17,14.80
2011,07,04,11,18,14.70
2011,07,04,11,19,14.70
2011,07,04,11,20,14.60
2011,07,04,11,21,14.60
2011,07,04,11,22,14.70
2011,07,04,11,23,14.70
2011,07,04,11,24,14.70
2011,07,04,11,25,14.60
2011,07,04,11,26,14.60
2011,07,04,11,27,14.60
2011,07,04,11,28,14.60
2011,07,04,11,29,14.70
2011,07,04,11,30,14.80
2011,07,04,11,31,14.90
2011,07,04,11,32,15.00
2011,07,04,11,33,15.00
2011,07,04,11,34,15.10
2011,07,04,11,35,15.10
2011,07,04,11,36,15.10
2011,07,04,11,37,15.10
2011,07,04,11,38,15.00
2011,07,04,11,39,15.10
2011,07,04,11,40,15.10
2011,07,04,11,41,15.10
2011,07,04,11,42,15.00
2011,07,04,11,43,15.10
2011,07,04,11,44,15.10
2011,07,04,11,45,15.10
2011,07,04,11,46,15.10
2011,07,04,11,47,15.10
2011,07,04,11,48,15.10
2011,07,04,11,49,15.00
2011,07,04,11,50,15.00
2011,07,04,11,51,15.10
2011,07,04,11,52,15.20
2011,07,04,11,53,15.20
2011,07,04,11,54,15.20
2011,07,04,11,55,15.30
2011,07,04,11,56,15.30
2011,07,04,11,57,15.30
2011,07,04,11,58,15.30
2011,07,04,11,59,15.30
2011,07,04,12,00,15.30
2011,07,04,12,01,15.30
2011,07,04,12,02,15.30
2011,07,04,12,03,15.30
2011,07,04,12,04,15.30
2011,07,04,12,05,15.30
2011,07,04,12,06,15.20
2011,07,04,12,07,15.20
2011,07,04,12,08,15.20
2011,07,04,12,09,15.20
2011,07,04,12,10,15.20
2011,07,04,12,11,15.20
2011,07,04,12,12,15.20
2011,07,04,12,13,15.20
2011,07,04,12,14,15.20
2011,07,04,12,15,15.10
2011,07,04,12,16,15.00
2011,07,04,12,17,15.00
2011,07,04,12,18,14.90
2011,07,04,12,19,14.90
2011,07,04,12,20,15.00
2011,07,04,12,21,15.00
2011,07,04,12,22,15.10
2011,07,04,12,23,15.20
2011,07,04,12,24,15.20
2011,07,04,12,25,15.30
2011,07,04,12,26,15.30
2011,07,04,12,27,15.30
2011,07,04,12,28,15.20
2011,07,04,12,29,15.10
2011,07,04,12,30,15.10
2011,07,04,12,31,15.00
2011,07,04,12,32,15.00
2011,07,04,12,33,15.00
2011,07,04,12,34,15.00
2011,07,04,12,35,15.10
2011,07,04,12,36,15.20
2011,07,04,12,37,15.10
2011,07,04,12,38,15.10
2011,07,04,12,39,15.10
2011,07,04,12,40,15.00
2011,07,04,12,41,14.90
2011,07,04,12,42,14.90
2011,07,04,12,43,15.00
2011,07,04,12,44,15.10
2011,07,04,12,45,15.20
2011,07,04,12,46,15.10
2011,07,04,12,47,15.10
2011,07,04,12,48,15.20
2011,07,04,12,49,15.20
2011,07,04,12,50,15.20
2011,07,04,12,51,15.20
2011,07,04,12,52,15.10
2011,07,04,12,53,15.10
2011,07,04,12,54,15.00
2011,07,04,12,55,15.00
2011,07,04,12,56,14.90
2011,07,04,12,57,14.90
2011,07,04,12,58,14.90
2011,07,04,12,59,14.80
2011,07,04,13,00,14.70
2011,07,04,13,01,14.70
2011,07,04,13,02,14.70
2011,07,04,13,03,14.70
2011,07,04,13,04,14.70
2011,07,04,13,05,14.70
2011,07,04,13,06,14.70
2011,07,04,13,07,14.70
2011,07,04,13,08,14.70
2011,07,04,13,09,14.80
2011,07,04,13,10,14.80
2011,07,04,13,11,14.80
2011,07,04,13,12,14.80
2011,07,04,13,13,14.90
2011,07,04,13,14,15.00
2011,07,04,13,15,15.00
2011,07,04,13,16,14.90
2011,07,04,13,17,14.80
2011,07,04,13,18,14.70
2011,07,04,13,19,14.70
2011,07,04,13,20,14.70
2011,07,04,13,21,14.60
2011,07,04,13,22,14.60
2011,07,04,13,23,14.50
2011,07,04,13,24,14.40
2011,07,04,13,25,14.40
2011,07,04,13,26,14.40
2011,07,04,13,27,14.40
2011,07,04,13,28,14.40
2011,07,04,13,29,14.40
2011,07,04,13,30,14.40
2011,07,04,13,31,14.50
2011,07,04,13,32,14.50
2011,07,04,13,33,14.50
2011,07,04,13,34,14.50
2011,07,04,13,35,14.50
2011,07,04,13,36,14.60
2011,07,04,13,37,14.60
2011,07,04,13,38,14.70
2011,07,04,13,39,14.70
2011,07,04,13,40,14.70
2011,07,04,13,41,14.80
2011,07,04,13,42,14.80
2011,07,04,13,43,14.90
2011,07,04,13,44,14.90
2011,07,04,13,45,14.90
2011,07,04,13,46,15.00
2011,07,04,13,47,15.00
2011,07,04,13,48,15.00
2011,07,04,13,49,15.00
2011,07,04,13,50,15.00
2011,07,04,13,51,15.00
2011,07,04,13,52,14.90
2011,07,04,13,53,14.90
2011,07,04,13,54,14.90
2011,07,04,13,55,14.90
2011,07,04,13,56,14.90
2011,07,04,13,57,15.00
2011,07,04,13,58,14.90
2011,07,04,13,59,14.90
2011,07,04,14,00,15.00
2011,07,04,14,01,15.10
2011,07,04,14,02,15.10
2011,07,04,14,03,15.20
2011,07,04,14,04,15.30
2011,07,04,14,05,15.30
2011,07,04,14,06,15.40
2011,07,04,14,07,15.50
2011,07,04,14,08,15.50
2011,07,04,14,09,15.60
2011,07,04,14,10,15.60
2011,07,04,14,11,15.60
2011,07,04,14,12,15.60
2011,07,04,14,13,15.60
2011,07,04,14,14,15.60
2011,07,04,14,15,15.70
2011,07,04,14,16,15.70
2011,07,04,14,17,15.80
2011,07,04,14,18,15.80
2011,07,04,14,19,15.80
2011,07,04,14,20,15.80
2011,07,04,14,21,15.80
2011,07,04,14,22,15.70
2011,07,04,14,23,15.70
2011,07,04,14,24,15.70
2011,07,04,14,25,15.70
2011,07,04,14,26,15.70
2011,07,04,14,27,15.70
2011,07,04,14,28,15.80
2011,07,04,14,29,15.80
2011,07,04,14,30,15.80
2011,07,04,14,31,15.60
2011,07,04,14,32,15.50
2011,07,04,14,33,15.40
2011,07,04,14,34,15.30
2011,07,04,14,35,15.20
2011,07,04,14,36,15.20
2011,07,04,14,37,15.20
2011,07,04,14,38,15.20
2011,07,04,14,39,15.10
2011,07,04,14,40,15.00
2011,07,04,14,41,15.00
2011,07,04,14,42,14.90
2011,07,04,14,43,14.90
2011,07,04,14,44,14.90
2011,07,04,14,45,15.00
2011,07,04,14,46,15.00
2011,07,04,14,47,15.00
2011,07,04,14,48,15.00
2011,07,04,14,49,15.00
2011,07,04,14,50,15.00
2011,07,04,14,51,15.10
2011,07,04,14,52,15.10
2011,07,04,14,53,15.00
2011,07,04,14,54,14.90
2011,07,04,14,55,14.90
2011,07,04,14,56,14.90
2011,07,04,14,57,15.00
2011,07,04,14,58,15.00
2011,07,04,14,59,15.00
2011,07,04,15,00,15.00
2011,07,04,15,01,14.90
2011,07,04,15,02,14.90
2011,07,04,15,03,14.90
2011,07,04,15,04,14.80
2011,07,04,15,05,14.80
2011,07,04,15,06,14.80
2011,07,04,15,07,14.90
2011,07,04,15,08,14.90
2011,07,04,15,09,14.90
2011,07,04,15,10,14.90
2011,07,04,15,11,14.90
2011,07,04,15,12,14.90
2011,07,04,15,13,15.00
2011,07,04,15,14,15.10
2011,07,04,15,15,15.10
2011,07,04,15,16,15.10
2011,07,04,15,17,15.10
2011,07,04,15,18,15.10
2011,07,04,15,19,15.00
2011,07,04,15,20,15.00
2011,07,04,15,21,14.90
2011,07,04,15,22,14.90
2011,07,04,15,23,14.90
2011,07,04,15,24,14.90
2011,07,04,15,25,15.00
2011,07,04,15,26,15.00
2011,07,04,15,27,15.10
2011,07,04,15,28,15.20
2011,07,04,15,29,15.30
2011,07,04,15,30,15.30
2011,07,04,15,31,15.30
2011,07,04,15,32,15.40
2011,07,04,15,33,15.30
2011,07,04,15,34,15.20
2011,07,04,15,35,15.10
2011,07,04,15,36,15.00
2011,07,04,15,37,15.00
2011,07,04,15,38,14.90
2011,07,04,15,39,14.90
2011,07,04,15,40,14.90
2011,07,04,15,41,14.90
2011,07,04,15,42,14.90
2011,07,04,15,43,15.00
2011,07,04,15,44,15.00
2011,07,04,15,45,15.10
2011,07,04,15,46,15.10
2011,07,04,15,47,15.10
2011,07,04,15,48,15.10
2011,07,04,15,49,15.20
2011,07,04,15,50,15.20
2011,07,04,15,51,15.20
2011,07,04,15,52,15.20
2011,07,04,15,53,15.20
2011,07,04,15,54,15.10
2011,07,04,15,55,15.10
2011,07,04,15,56,15.10
2011,07,04,15,57,15.00
2011,07,04,15,58,14.90
2011,07,04,15,59,14.80
2011,07,04,16,00,14.70
2011,07,04,16,01,14.60
2011,07,04,16,02,14.60
2011,07,04,16,03,14.50
2011,07,04,16,04,14.50
2011,07,04,16,05,14.60
2011,07,04,16,06,14.50
2011,07,04,16,07,14.50
2011,07,04,16,08,14.40
2011,07,04,16,09,14.40
2011,07,04,16,10,14.40
2011,07,04,16,11,14.50
2011,07,04,16,12,14.50
2011,07,04,16,13,14.50
2011,07,04,16,14,14.40
2011,07,04,16,15,14.40
2011,07,04,16,16,14.40
2011,07,04,16,17,14.50
2011,07,04,16,18,14.50
2011,07,04,16,19,14.50
2011,07,04,16,20,14.50
2011,07,04,16,21,14.40
2011,07,04,16,22,14.40
2011,07,04,16,23,14.30
2011,07,04,16,24,14.30
2011,07,04,16,25,14.30
2011,07,04,16,26,14.20
2011,07,04,16,27,14.20
2011,07,04,16,28,14.30
2011,07,04,16,29,14.30
2011,07,04,16,30,14.30
2011,07,04,16,31,14.40
2011,07,04,16,32,14.40
2011,07,04,16,33,14.40
2011,07,04,16,34,14.40
2011,07,04,16,35,14.40
2011,07,04,16,36,14.50
2011,07,04,16,37,14.60
2011,07,04,16,38,14.70
2011,07,04,16,39,14.70
2011,07,04,16,40,14.80
2011,07,04,16,41,14.80
2011,07,04,16,42,14.80
2011,07,04,16,43,14.80
2011,07,04,16,44,14.80
2011,07,04,16,45,14.90
2011,07,04,16,46,14.90
2011,07,04,16,47,15.00
2011,07,04,16,48,15.10
2011,07,04,16,49,15.20
2011,07,04,16,50,15.30
2011,07,04,16,51,15.30
2011,07,04,16,52,15.30
2011,07,04,16,53,15.40
2011,07,04,16,54,15.50
2011,07,04,16,55,15.50
2011,07,04,16,56,15.50
2011,07,04,16,57,15.50
2011,07,04,16,58,15.50
2011,07,04,16,59,15.50
2011,07,04,17,00,15.50
2011,07,04,17,01,15.60
2011,07,04,17,02,15.60
2011,07,04,17,03,15.60
2011,07,04,17,04,15.70
2011,07,04,17,05,15.70
2011,07,04,17,06,15.70
2011,07,04,17,07,15.70
2011,07,04,17,08,15.70
2011,07,04,17,09,15.70
2011,07,04,17,10,15.70
2011,07,04,17,11,15.60
2011,07,04,17,12,15.50
2011,07,04,17,13,15.50
2011,07,04,17,14,15.50
2011,07,04,17,15,15.60
2011,07,04,17,16,15.60
2011,07,04,17,17,15.50
2011,07,04,17,18,15.40
2011,07,04,17,19,15.30
2011,07,04,17,20,15.30
2011,07,04,17,21,15.30
2011,07,04,17,22,15.20
2011,07,04,17,23,15.30
2011,07,04,17,24,15.30
2011,07,04,17,25,15.40
2011,07,04,17,26,15.50
2011,07,04,17,27,15.60
2011,07,04,17,28,15.70
2011,07,04,17,29,15.80
2011,07,04,17,30,15.80
2011,07,04,17,31,15.70
2011,07,04,17,32,15.70
2011,07,04,17,33,15.70
2011,07,04,17,34,15.70
2011,07,04,17,35,15.70
2011,07,04,17,36,15.80
2011,07,04,17,37,15.80
2011,07,04,17,38,15.80
2011,07,04,17,39,15.80